This is the latest recevied weather packets stored in our database for station/object AB8Y-13. If no packets are shown the sender has not sent any weather packets the latest 10 day(s).
| Time | Temp. | Humidity | Pressure | Rain* | Wind** | Luminosity | Snow |
|---|---|---|---|---|---|---|---|
| 1777750646 | 10.56° C | 32% | 1016.9 hPa | 0 mm | - | 292 W/m² | - |
| 1777750344 | 10° C | 36% | 1016.9 hPa | 0 mm | - | 362 W/m² | - |
| 1777750043 | 10.56° C | 32% | 1017 hPa | 0 mm | - | 397 W/m² | - |
| 1777749741 | 10.56° C | 38% | 1016.9 hPa | 0 mm | - | 440 W/m² | - |
| 1777749438 | 11.11° C | 32% | 1017 hPa | 0 mm | - | 527 W/m² | - |
| 1777749136 | 10.56° C | 35% | 1017 hPa | 0 mm | - | 1171 W/m² | - |
| 1777748833 | 10.56° C | 32% | 1017 hPa | 0 mm | - | 343 W/m² | - |
| 1777748531 | 10.56° C | 30% | 1017 hPa | 0 mm | - | 1048 W/m² | - |
| 1777748230 | 10.56° C | 34% | 1017 hPa | 0 mm | - | 548 W/m² | - |
| 1777747927 | 9.44° C | 38% | 1017.1 hPa | 0 mm | - | 1053 W/m² | - |
| 1777747623 | 9.44° C | 39% | 1017.3 hPa | 0 mm | - | 337 W/m² | - |
| 1777747324 | 10° C | 35% | 1017.2 hPa | 0 mm | - | 264 W/m² | - |
| 1777747021 | 10.56° C | 36% | 1017.1 hPa | 0 mm | - | 309 W/m² | - |
| 1777746717 | 11.11° C | 39% | 1017.1 hPa | 0 mm | - | 356 W/m² | - |
| 1777746412 | 11.67° C | 31% | 1017.5 hPa | 0 mm | - | 1165 W/m² | - |
| 1777746108 | 10.56° C | 44% | 1017.3 hPa | 0 mm | - | 1126 W/m² | - |
| 1777745806 | 10° C | 49% | 1017.6 hPa | 0 mm | - | 1175 W/m² | - |
| 1777745504 | 8.89° C | 39% | 1017.5 hPa | 0 mm | - | 1225 W/m² | - |
| 1777745201 | 8.89° C | 42% | 1017.5 hPa | 0 mm | - | 346 W/m² | - |
| 1777744898 | 8.89° C | 39% | 1017.7 hPa | 0 mm | - | 317 W/m² | - |
| 1777744597 | 8.33° C | 43% | 1017.7 hPa | 0 mm | - | 1133 W/m² | - |
| 1777744293 | 8.89° C | 37% | 1017.3 hPa | 0 mm | - | 242 W/m² | - |
| 1777743991 | 8.89° C | 37% | 1017.7 hPa | 0 mm | - | 991 W/m² | - |
| 1777743687 | 9.44° C | 42% | 1017.7 hPa | 0 mm | - | 300 W/m² | - |
| 1777743384 | 9.44° C | 40% | 1017.8 hPa | 0 mm | - | 356 W/m² | - |
* Rain latest hour (hover to see other rain measurements)
** Current wind speed in m/s (hover to see current wind gust speed)